Wind_Speed
17 17 16 16 15 14 13 12 11 10 10 9 9 8 7 7 7 6 5 4 4 3 3 5 6 6 7 7 7 8 8 9 9 9 9 9 9 9 9 9 10 10 11 12 13 13 14 14 15 16 16 16 17 18 18 18 18 18 18 19 19 20 20 21 22 22 23 23 23
17 16 16 15 15 14 14 13 12 11 10 9 9 8 7 7 7 6 5 4 3 3 4 5 6 7 8 8 9 9 10 10 10 10 10 10 10 10 10 10 10 11 11 12 13 14 14 15 16 16 17 17 18 18 19 19 19 19 19 19 20 20 21 22 22 22 23 23 23
17 16 16 15 15 14 14 13 12 11 10 10 9 9 9 8 7 6 5 4 3 3 4 6 7 8 9 10 10 11 11 11 11 11 11 11 11 11 11 11 11 11 12 13 13 14 15 15 16 17 17 18 19 19 20 20 20 20 20 20 21 22 22 22 22 23 23 22 23
17 16 15 15 14 13 13 12 11 11 10 10 10 10 10 9 7 6 4 3 3 4 5 6 7 8 10 11 11 12 11 11 12 12 12 12 12 12 12 12 12 12 12 13 14 14 15 16 16 17 18 19 19 20 20 21 21 21 21 21 22 22 23 23 23 23 22 22 22
17 16 15 14 14 13 12 12 11 10 9 9 9 10 9 8 7 5 4 3 4 4 5 6 7 9 10 11 12 12 12 12 12 12 12 13 13 13 13 13 13 13 13 14 14 15 16 16 17 18 18 19 20 20 21 21 21 22 22 22 23 23 23 23 23 23 23 23 23
17 16 15 14 13 13 12 11 10 10 9 9 9 9 8 7 6 5 4 4 4 4 5 6 8 9 11 12 12 12 12 12 12 13 13 13 13 14 14 14 14 14 14 14 15 15 16 17 18 18 19 20 20 21 21 22 22 23 23 24 24 23 23 23 23 23 23 23 24
17 16 15 14 13 13 12 11 10 9 8 8 8 8 7 6 5 5 5 4 4 4 5 7 8 10 11 12 12 13 13 13 13 13 13 14 14 14 14 14 14 15 15 15 16 16 17 18 19 19 20 21 21 22 22 22 23 23 24 24 24 24 24 24 24 24 23 24 24
16 16 15 14 13 12 11 10 9 9 8 8 8 7 6 5 5 5 5 5 5 5 6 7 8 10 11 12 12 13 13 13 13 14 14 14 15 15 15 15 15 15 16 16 17 17 18 19 19 20 21 22 22 23 23 23 24 24 25 25 25 25 24 24 24 24 23 24 24
17 16 15 14 13 11 10 10 9 9 9 9 8 7 6 5 4 4 5 6 6 6 7 8 9 10 11 11 12 12 13 13 14 14 14 15 15 15 16 16 16 16 17 17 17 18 19 20 20 21 22 22 23 23 24 24 24 25 25 25 25 25 25 24 24 23 23 23 23
17 16 15 13 12 11 10 9 9 9 8 8 8 6 5 4 4 4 5 6 6 7 8 9 9 10 11 11 12 12 13 13 14 14 15 15 15 16 16 17 17 17 18 18 18 19 20 21 21 22 22 23 23 24 24 24 25 25 25 25 25 25 25 24 24 23 23 22 23
17 16 14 13 12 10 9 9 9 8 8 8 7 6 4 3 4 5 6 6 7 8 9 9 10 11 11 12 12 12 13 13 14 14 15 16 16 17 17 17 18 18 19 19 19 20 21 21 22 23 23 23 24 24 24 25 25 25 26 26 26 25 25 24 23 23 22 23 24
17 15 14 13 11 10 9 8 8 7 7 7 6 5 4 3 4 5 6 7 8 9 9 10 10 11 11 12 12 12 13 13 14 15 16 16 17 17 18 18 18 19 19 19 20 20 21 22 22 23 24 24 24 24 25 25 25 26 26 26 25 25 24 24 24 23 23 23 24
16 15 13 12 11 10 9 8 7 6 6 6 5 4 4 4 5 5 6 7 9 10 10 10 11 11 11 12 12 13 13 14 15 16 16 17 18 18 18 18 19 19 19 20 20 20 21 22 23 24 24 25 25 25 25 25 26 26 26 26 25 25 24 24 24 24 24 24 24
15 14 13 12 11 10 9 8 7 6 5 5 5 5 5 5 6 6 7 9 9 10 10 11 11 11 12 12 13 13 14 15 15 16 17 18 18 18 19 19 19 19 20 20 20 21 22 23 23 24 25 25 26 26 26 26 26 25 25 25 25 25 25 25 24 24 24 24 24
15 13 12 11 10 9 8 7 6 6 5 5 5 5 6 6 7 8 8 9 10 10 11 11 11 12 12 12 13 14 14 15 16 17 18 18 18 18 19 19 19 20 20 21 21 22 22 23 24 24 25 26 26 26 26 26 26 25 25 25 25 25 25 25 24 24 23 23 24
14 13 12 11 10 9 8 7 6 6 6 6 6 6 6 7 8 8 9 10 10 11 11 11 12 12 13 13 13 14 15 16 17 17 18 18 19 19 19 20 20 21 21 22 22 23 23 24 24 25 25 26 26 27 27 26 26 26 26 25 25 25 24 24 23 23 23 23 23
13 12 11 10 10 9 8 8 7 6 6 6 6 6 7 7 8 9 9 10 11 11 11 12 12 13 13 14 14 15 15 16 17 18 18 19 19 19 20 20 21 21 22 23 23 24 25 25 25 25 26 26 26 27 27 26 26 26 25 25 25 24 23 23 22 22 22 23 23
13 12 11 10 10 9 9 8 7 6 6 6 6 6 7 7 8 9 10 10 11 11 12 12 12 13 14 14 15 15 16 17 17 18 18 19 19 20 20 21 21 22 23 23 24 25 25 26 26 26 26 26 26 26 26 26 26 25 25 24 24 23 22 22 22 22 22 23 24
12 12 11 10 10 9 8 8 7 6 6 5 5 6 6 7 8 9 10 10 10 11 12 12 13 13 14 15 15 16 16 17 18 18 19 19 19 20 21 21 22 23 23 24 25 25 26 26 26 27 27 27 26 26 26 26 25 25 24 23 23 22 22 22 22 22 23 23 24
12 12 11 10 9 9 8 7 7 6 5 5 5 5 6 8 9 9 10 10 11 11 12 12 13 14 14 15 16 16 17 17 18 19 19 19 20 21 21 22 23 24 24 25 25 26 26 26 27 27 26 26 26 26 26 25 25 24 23 23 22 22 22 22 23 23 23 23 24
12 12 11 10 9 8 8 7 6 6 5 5 5 6 7 8 9 10 10 11 11 11 12 12 13 14 15 16 16 17 17 18 18 19 19 20 21 21 22 23 24 24 25 25 26 26 26 26 26 26 26 26 26 25 25 25 25 24 23 23 22 22 22 23 23 23 23 23 24
12 11 10 9 9 8 7 7 6 5 5 4 5 6 7 8 9 10 10 11 11 12 12 12 13 14 15 16 17 17 18 18 19 19 20 20 21 22 22 23 24 25 25 26 26 26 26 26 26 26 26 26 25 25 25 25 24 24 23 23 23 23 23 23 23 23 23 23 23
12 11 10 9 8 7 7 6 5 4 4 4 5 6 7 9 10 10 11 11 11 12 12 13 14 15 16 16 17 18 18 19 19 20 20 21 22 23 23 24 25 25 26 26 26 26 26 26 26 25 25 25 25 25 25 24 24 24 23 23 23 24 24 23 23 23 23 23 23
12 11 10 9 8 7 6 5 4 4 4 4 5 7 8 9 10 11 11 11 12 12 13 14 14 15 16 16 17 18 18 19 20 21 21 22 23 23 24 25 25 26 26 26 26 25 25 25 25 26 25 25 25 25 25 24 24 24 23 23 24 24 24 23 23 23 23 23 23
12 10 9 8 7 6 5 4 3 3 3 5 6 7 8 9 10 11 11 11 12 13 13 14 15 16 16 17 17 18 19 20 21 22 23 23 24 24 25 26 26 26 26 26 25 24 24 24 25 25 25 25 25 25 25 24 24 23 23 23 24 24 24 23 23 23 23 23 23
11 10 9 8 7 5 4 3 3 3 3 5 6 7 8 9 10 10 11 11 12 13 14 15 16 16 17 17 18 19 19 20 21 22 23 24 25 25 26 26 26 26 26 26 25 25 25 25 24 25 25 25 26 26 25 25 24 24 23 23 23 23 23 23 23 23 23 23 23
11 10 9 8 6 5 4 3 2 2 4 5 7 8 8 9 10 10 11 12 13 14 15 16 16 17 17 18 19 19 20 21 22 22 23 24 25 26 27 27 27 27 27 26 25 25 25 25 25 24 25 25 26 26 26 25 25 24 23 23 23 22 22 22 23 24 24 24 24
10 9 8 7 6 5 4 2 2 2 4 6 7 8 8 9 9 10 11 12 14 15 15 16 16 17 18 18 19 20 21 22 22 23 24 25 25 26 27 27 27 27 27 26 26 25 25 25 25 25 25 25 25 26 26 25 25 24 23 23 22 22 22 22 23 23 24 25 25
9 9 8 7 6 5 4 2 2 3 4 6 7 7 8 8 9 10 11 13 14 15 16 17 17 18 18 19 20 20 21 22 23 24 24 25 26 26 27 27 28 28 28 27 25 25 25 25 25 25 25 25 25 26 25 25 24 24 23 23 22 22 22 22 23 23 24 24 25
9 8 8 7 6 5 4 2 2 3 5 6 7 7 8 8 9 11 12 13 15 15 16 17 17 18 19 19 20 21 22 23 24 24 25 26 26 27 27 28 28 28 28 26 25 25 25 25 26 26 26 26 26 25 25 25 24 24 23 23 22 22 22 23 23 23 23 24 25
8 8 8 7 6 5 3 2 2 3 5 5 6 7 8 9 10 11 12 14 15 16 16 17 18 18 19 20 21 22 23 24 24 25 25 26 27 27 28 28 29 28 27 26 25 25 26 26 26 26 26 26 26 25 25 25 24 24 23 23 23 23 22 22 21 22 22 24 25
8 8 7 7 6 4 3 2 2 3 4 5 6 7 8 9 10 11 13 14 15 16 17 17 18 19 20 21 22 23 23 24 25 25 26 26 27 28 28 28 28 28 27 26 25 26 26 26 26 26 26 26 26 25 25 25 24 24 23 23 22 22 21 21 20 21 22 24 25
8 8 7 6 5 4 3 2 2 3 4 5 6 7 8 10 11 12 13 14 15 16 17 18 19 19 20 21 22 23 24 25 25 26 26 26 27 28 28 28 28 27 26 26 26 26 26 27 27 27 27 26 26 26 25 25 24 23 22 22 21 20 20 20 20 21 23 24 25
8 7 7 6 4 3 2 2 3 3 4 5 6 7 9 10 11 12 13 14 15 16 17 18 19 19 20 21 22 24 24 25 25 26 26 27 27 27 28 28 27 27 26 26 26 26 27 27 27 27 27 26 26 26 25 25 24 23 21 21 20 19 19 20 21 22 23 24 24
7 7 6 5 4 3 2 2 3 4 5 6 7 8 9 10 11 13 14 15 16 17 18 18 19 20 21 22 23 24 25 25 26 26 27 27 27 27 27 27 28 27 27 26 26 26 27 27 27 27 27 26 26 25 25 24 23 22 21 20 19 19 20 21 22 22 23 23 24
7 6 5 4 3 2 2 2 3 4 5 6 8 9 10 11 12 13 14 15 16 17 18 19 20 21 22 23 23 24 25 25 26 27 27 27 27 27 27 27 27 28 27 26 26 26 27 27 27 27 26 26 25 24 23 22 21 20 20 20 20 20 21 22 23 23 23 23 24
6 5 5 4 3 2 2 2 3 5 6 7 8 9 11 12 13 14 14 15 16 18 19 20 21 21 22 23 24 25 25 25 26 26 26 26 26 26 27 27 27 28 28 27 26 26 26 27 26 26 26 26 25 24 22 21 20 20 20 20 21 22 23 23 23 23 23 23 24
5 5 4 3 2 2 2 3 4 5 6 7 9 10 11 12 14 14 15 15 17 18 19 20 21 22 23 24 25 25 25 25 25 26 26 26 26 26 26 26 27 28 28 28 27 26 26 26 26 26 25 25 24 23 22 21 20 20 21 22 23 23 23 23 23 23 23 24 26
5 4 3 2 2 1 2 3 5 6 7 8 9 10 12 13 14 15 15 16 17 18 19 20 22 23 23 24 25 25 25 25 25 25 25 25 25 25 25 26 26 27 28 28 26 26 26 26 26 25 25 24 24 23 22 21 21 21 22 22 23 23 23 23 22 23 24 26 28
4 3 2 2 1 2 3 4 5 6 7 8 9 11 12 13 14 15 16 17 17 18 19 21 22 23 24 24 25 25 26 26 25 25 24 25 25 25 25 26 26 27 27 28 26 25 25 25 25 25 25 24 24 23 22 22 22 22 22 22 22 22 22 22 22 23 26 28 30
4 3 2 1 1 2 3 5 5 6 7 8 10 11 12 14 15 16 17 17 18 19 20 21 22 23 24 24 24 25 25 25 25 25 25 25 25 25 25 25 26 26 26 27 26 25 25 25 25 25 25 24 24 23 22 21 21 21 21 21 21 21 22 22 24 26 27 29 30
Wind_Direction
131 132 132 133 133 131 130 130 131 133 134 133 130 128 125 120 114 109 106 101 90 72 44 23 16 14 13 10 4 357 352 348 347 346 345 344 343 341 339 337 336 335 335 335 335 336 336 336 336 335 334 334 333 332 332 332 331 329 326 323 321 319 318 317 316 316 316 316 315
128 130 131 132 133 133 132 132 133 133 133 132 130 127 120 112 105 102 98 92 78 52 26 14 12 12 11 7 2 357 353 350 348 348 347 346 345 343 341 339 338 336 335 334 334 334 334 333 333 332 331 331 330 330 330 330 330 328 324 322 320 318 317 316 315 315 315 314 314
127 129 130 130 130 131 131 130 129 127 126 124 124 121 115 107 102 99 95 88 67 33 14 9 9 9 6 3 0 358 355 353 351 349 348 348 347 346 344 342 340 338 337 335 333 333 332 331 330 329 328 328 328 327 328 328 328 326 323 320 319 317 316 315 314 314 313 313 313
127 128 128 128 129 129 129 129 127 125 122 120 119 118 115 111 107 103 97 85 52 24 11 7 5 4 2 359 358 358 357 355 352 350 349 348 348 347 345 344 342 339 337 335 333 331 330 329 327 326 326 326 325 325 325 326 325 323 321 319 318 317 315 314 313 313 312 311 311
130 130 130 130 130 130 130 130 129 126 122 120 120 120 120 119 115 108 93 71 41 22 10 5 1 359 357 356 357 357 356 354 352 350 348 347 347 346 345 344 341 339 337 335 332 330 329 327 325 324 324 324 324 324 324 324 323 321 319 318 317 316 315 313 313 312 311 310 310
134 134 134 135 134 134 135 135 133 129 125 122 120 120 121 121 116 101 80 61 43 26 12 3 357 354 353 354 355 356 355 353 351 348 346 345 345 345 344 342 340 338 336 333 331 329 327 325 324 323 323 323 323 322 322 322 321 320 318 317 316 315 315 313 312 312 311 310 311
138 137 137 137 137 137 137 137 135 131 125 119 114 112 112 111 102 87 71 59 46 28 11 359 353 351 352 354 355 355 353 350 348 346 344 343 342 342 341 339 338 336 334 331 329 327 325 324 323 323 323 323 322 322 322 322 321 319 318 316 316 315 314 313 313 312 311 311 312
139 138 138 138 139 138 136 135 132 127 119 112 106 102 100 96 87 73 61 50 38 22 6 357 353 352 353 355 354 353 350 347 345 343 342 340 339 338 338 336 335 333 331 330 327 326 324 323 322 323 323 323 322 322 322 321 320 319 317 316 315 315 314 313 313 313 312 313 313
136 136 137 137 137 136 133 131 126 121 115 109 104 101 96 88 74 59 47 37 26 14 3 358 356 356 356 356 354 351 348 345 342 340 339 338 336 335 334 334 332 331 330 329 327 325 323 323 322 323 323 323 322 322 321 321 319 318 317 316 315 315 314 314 314 314 314 314 315
134 133 133 133 133 132 130 126 122 118 115 112 110 107 102 88 65 45 35 26 17 10 5 3 2 0 359 357 354 350 346 343 340 338 337 336 334 333 332 332 331 330 329 328 327 325 324 323 323 323 323 323 322 321 321 320 319 318 317 316 315 315 315 315 315 315 316 316 316
132 131 131 130 130 130 128 125 120 117 115 114 113 112 105 85 56 37 26 18 14 12 10 8 6 3 360 356 353 350 346 342 339 337 335 333 333 332 332 331 330 330 329 328 327 326 325 324 324 323 323 323 322 321 321 320 319 318 317 316 316 315 315 315 316 317 317 317 317
132 132 131 130 131 131 129 124 119 115 113 111 110 106 94 71 47 32 23 17 16 16 14 11 7 3 360 356 352 349 345 342 338 335 333 332 332 332 332 331 331 330 330 329 328 327 325 324 324 323 322 322 321 321 320 320 319 318 317 316 316 316 315 316 316 317 318 318 317
133 133 133 133 134 134 130 125 119 114 108 103 99 90 76 57 41 30 24 21 20 19 16 12 7 3 359 355 351 348 344 340 337 334 332 331 331 331 332 332 332 331 330 330 329 327 325 324 323 322 321 321 321 320 320 320 319 318 317 316 316 315 315 315 316 317 317 317 317
133 133 133 134 135 134 131 126 120 111 102 94 85 76 63 51 40 32 27 25 22 19 15 11 6 2 358 353 349 346 342 338 334 332 331 331 332 332 332 332 332 331 330 329 328 327 325 324 323 322 321 320 320 320 320 319 318 317 316 316 315 314 314 315 315 317 317 317 316
132 132 132 132 132 131 129 124 117 106 95 85 75 65 56 47 39 33 30 26 22 18 13 9 4 0 357 352 348 343 339 335 333 332 331 331 332 332 332 332 331 331 329 328 327 325 324 323 322 321 320 320 319 319 319 318 317 316 315 314 313 313 313 314 315 316 317 317 316
130 129 128 129 128 126 123 117 109 100 89 78 66 58 50 44 39 33 30 25 21 16 11 7 2 358 354 351 346 341 336 334 332 332 332 332 332 332 332 331 330 329 328 326 325 323 322 322 321 320 320 319 319 318 318 317 317 315 314 313 312 312 312 313 315 316 316 317 316
126 125 125 124 123 120 115 110 103 93 83 71 61 52 46 41 37 33 29 23 17 12 8 4 360 355 351 347 343 339 334 333 332 332 332 332 332 331 330 329 328 327 326 325 323 322 321 321 320 320 320 319 318 318 317 317 316 315 314 313 312 312 313 314 315 316 317 317 317
124 123 121 120 117 113 108 103 97 88 79 69 59 51 44 39 35 31 27 21 15 8 3 0 357 352 347 342 339 336 333 332 332 332 332 331 331 329 328 327 327 325 324 323 322 321 321 320 320 320 320 319 318 318 317 316 315 314 314 314 313 314 314 315 316 317 318 318 317
123 121 119 116 112 108 103 99 93 86 78 68 59 50 43 38 33 29 24 19 13 7 1 356 352 347 342 337 334 333 333 332 331 331 331 331 330 328 327 326 325 324 323 322 321 321 320 320 321 320 320 319 318 318 317 316 316 315 315 315 315 315 316 317 318 319 319 319 318
123 120 117 113 109 106 101 97 91 85 78 69 59 49 41 36 31 26 20 15 10 4 358 352 346 341 337 334 332 332 332 332 331 331 330 330 329 328 327 326 324 324 323 322 321 321 321 321 321 321 320 320 319 318 317 317 317 316 316 316 317 317 318 319 319 320 320 319 319
122 119 116 113 109 105 100 95 90 85 79 69 57 46 40 34 28 22 16 11 6 1 354 347 340 336 333 332 331 331 332 332 331 330 330 329 328 327 326 325 324 323 323 322 322 322 322 322 322 321 320 319 319 318 318 318 317 317 317 317 318 318 319 320 320 320 320 320 319
121 118 115 112 108 104 100 95 90 86 79 66 53 44 37 30 24 18 13 7 2 356 348 341 336 332 330 330 330 330 331 331 331 330 330 328 327 327 326 325 324 323 323 323 323 323 323 323 322 321 320 319 318 318 318 318 318 318 318 318 318 319 320 320 320 320 320 320 320
120 118 115 113 109 104 101 96 93 86 74 60 48 39 32 26 19 14 8 3 357 350 342 336 331 329 328 329 329 330 330 330 331 330 329 328 327 327 326 326 325 324 324 324 324 324 324 323 322 320 320 319 318 318 318 318 318 318 318 319 319 320 320 320 320 321 321 321 320
120 118 116 113 110 107 105 100 95 83 67 52 41 34 27 20 14 8 3 357 350 343 336 331 329 328 329 330 331 331 331 330 330 329 329 328 327 327 326 326 326 325 325 325 325 324 323 322 320 320 319 318 318 318 317 317 318 318 319 319 320 320 320 320 320 320 321 320 320
120 118 118 117 116 114 111 106 94 76 57 43 35 28 22 15 8 2 356 349 342 336 331 328 329 330 331 332 333 333 332 331 330 329 328 328 327 327 327 326 326 325 325 325 325 323 321 320 320 319 318 318 318 317 317 317 318 318 319 319 320 320 320 320 320 320 320 320 319
122 122 122 124 124 124 121 113 94 65 45 35 28 22 16 10 3 356 348 341 334 330 329 329 331 333 334 335 335 334 333 332 330 329 328 327 327 327 327 327 326 326 325 325 324 322 321 320 319 319 318 318 317 317 317 318 318 318 319 319 319 319 319 319 319 320 319 319 318
126 127 129 130 132 133 131 120 94 55 37 28 22 16 10 3 356 348 339 332 328 328 329 332 334 336 336 336 335 334 333 332 331 329 328 327 327 327 327 326 326 325 325 324 323 321 320 320 319 319 319 318 318 317 317 317 318 318 318 318 318 318 318 318 318 318 318 318 318
132 133 136 137 140 141 140 129 94 49 32 23 17 10 3 356 347 338 330 326 326 329 332 335 337 338 337 336 335 333 332 331 330 329 329 328 327 327 326 326 325 325 324 324 322 321 321 320 319 319 319 318 318 317 317 317 317 317 317 317 317 317 317 316 316 316 317 317 317
137 139 141 143 145 147 147 135 86 44 28 19 11 3 355 346 337 329 326 325 328 331 334 337 339 339 338 336 335 333 332 331 330 330 329 328 327 327 326 326 325 325 324 324 322 321 321 320 320 319 319 319 318 317 317 316 316 316 316 316 316 316 315 315 315 315 316 316 317
141 144 145 147 149 150 146 124 70 38 23 12 3 354 345 336 328 324 324 326 330 333 337 338 338 338 337 336 334 332 331 331 330 330 329 328 327 327 326 325 325 325 324 324 322 322 321 320 320 320 319 319 318 317 317 316 316 316 315 315 315 314 314 313 313 314 315 316 317
145 148 150 152 152 149 138 107 58 30 14 3 353 343 334 327 324 323 326 329 332 336 339 339 338 337 336 335 334 332 331 331 330 330 329 328 327 326 325 325 325 325 325 324 323 322 321 321 320 320 320 320 319 318 317 316 316 315 314 313 313 313 312 312 313 314 316 317 317
149 151 153 153 150 142 126 89 46 20 4 352 342 334 327 324 323 326 330 333 336 338 339 339 338 336 335 334 333 332 331 330 330 330 329 328 327 326 325 325 325 325 325 324 323 323 322 322 321 321 321 320 319 318 317 316 315 314 313 312 311 311 312 313 314 316 317 317 316
152 154 153 150 144 133 110 72 33 8 353 342 334 327 324 323 327 332 336 339 339 339 338 338 336 334 333 332 331 331 330 330 329 329 328 327 326 326 325 325 325 325 325 324 324 323 323 323 323 322 322 321 320 319 317 316 314 313 312 311 311 312 314 315 316 317 317 316 315
155 154 151 146 137 122 94 55 19 357 343 334 328 325 325 327 331 337 341 342 341 339 337 336 334 332 331 330 330 329 329 329 329 328 328 327 326 326 325 325 325 325 326 325 325 325 325 324 324 324 323 322 321 319 317 316 314 313 312 312 313 315 317 318 318 318 317 316 314
157 155 150 142 129 110 78 36 4 346 335 327 325 327 330 334 338 341 343 342 340 337 335 334 333 331 330 330 330 329 329 328 328 327 327 327 326 325 325 325 325 327 327 327 326 326 326 326 326 325 324 323 321 319 318 316 315 314 315 316 317 319 320 320 319 318 316 314 312
157 154 147 136 121 99 60 15 350 335 328 325 327 331 336 339 342 344 343 341 338 335 333 332 331 331 330 330 330 330 328 327 327 326 326 327 326 326 325 325 326 328 329 329 328 328 328 328 327 326 325 324 322 320 319 317 317 317 318 319 321 322 322 321 319 318 316 313 311
154 149 140 128 113 86 39 358 337 326 324 326 331 336 339 341 343 344 343 340 335 332 331 330 330 330 330 330 329 328 327 327 326 326 326 326 326 326 325 325 326 328 330 330 330 330 330 329 328 328 326 325 323 322 321 320 320 321 322 322 322 322 322 321 319 317 315 313 311
149 141 130 117 99 61 10 341 326 321 323 328 334 339 342 342 342 342 341 338 333 330 328 328 328 329 329 329 328 327 326 326 326 325 325 326 327 327 326 326 327 329 331 332 332 331 331 330 329 329 328 326 325 324 324 324 324 324 324 323 322 321 321 320 319 318 316 313 311
144 135 123 106 74 23 343 326 320 322 326 332 337 341 342 341 339 338 337 335 331 328 327 326 327 328 328 328 326 325 325 325 326 326 326 326 327 327 327 326 327 330 332 334 333 332 332 331 330 330 329 328 327 327 327 326 325 325 324 324 322 321 321 320 320 318 316 313 309
142 132 117 89 38 347 328 319 321 326 332 335 338 340 340 338 337 336 335 333 331 329 327 327 327 327 328 327 325 324 324 324 325 326 326 326 327 328 328 328 329 331 333 335 334 333 333 332 332 331 330 329 329 329 328 327 326 325 324 324 323 322 321 321 320 318 315 311 307
142 131 114 66 351 329 321 321 326 332 337 338 338 338 338 336 334 334 333 331 330 329 328 327 327 327 327 326 325 323 323 323 324 326 326 327 327 328 329 330 330 331 333 335 335 334 333 333 332 332 332 331 330 329 329 328 326 325 325 325 324 323 321 320 318 316 312 308 306
Height
784 785 786 786 787 788 789 790 791 791 792 792 792 793 793 793 793 794 794 794 794 794 794 794 794 794 793 793 792 792 791 791 790 790 790 789 788 788 787 786 785 785 784 783 783 782 781 780 780 779 779 778 777 777 776 776 775 775 774 774 773 772 771 771 770 769 769 768 767
785 785 786 787 788 788 789 790 791 791 792 792 792 793 793 793 793 793 794 794 794 794 794 794 793 793 793 792 792 792 791 790 790 790 789 789 788 787 786 786 785 785 784 783 782 781 781 780 779 779 778 777 777 776 775 775 775 774 773 773 772 771 770 770 769 768 768 767 766
784 785 786 787 788 789 790 790 791 791 792 792 792 792 793 793 793 793 793 793 793 793 793 793 793 793 792 792 792 791 791 790 790 789 789 788 787 787 786 785 785 784 783 782 782 781 780 780 779 778 777 777 776 775 775 774 774 773 772 772 771 770 770 769 768 767 767 766 765
785 785 786 787 788 789 790 790 791 791 791 792 792 792 792 793 793 793 793 793 793 793 793 793 792 792 792 791 791 791 790 790 789 789 788 788 787 786 785 785 784 783 783 782 781 780 780 779 778 777 777 776 775 775 774 773 773 772 771 771 770 769 769 768 767 766 765 765 764
785 786 787 788 788 789 790 790 790 791 791 791 792 792 792 792 792 792 793 793 793 792 792 792 792 792 791 791 790 790 790 789 789 788 788 787 786 786 785 784 783 783 782 781 780 780 779 778 778 777 776 775 775 774 773 773 772 771 770 770 769 768 768 767 766 765 765 764 763
785 786 787 788 789 789 790 790 790 790 791 791 791 791 792 792 792 792 792 792 792 792 792 792 791 791 791 790 790 790 789 789 789 788 787 787 786 785 784 784 783 782 781 781 780 779 779 778 777 776 775 775 774 773 773 772 771 770 769 769 768 767 766 765 765 764 763 762 761
785 786 787 788 789 789 790 790 790 790 790 791 791 791 791 792 792 792 792 792 792 792 791 791 791 791 790 790 790 789 789 788 788 787 787 786 785 785 784 783 782 781 781 780 779 779 778 777 776 775 775 774 773 772 772 771 770 769 768 767 767 766 765 765 764 763 762 761 760
785 786 787 788 789 789 789 790 790 790 790 790 791 791 791 791 791 792 791 791 791 791 791 791 790 790 790 790 789 789 788 788 787 787 786 785 785 784 783 782 781 781 780 779 779 778 777 776 775 775 774 773 772 771 771 770 769 768 767 766 765 765 764 763 762 761 761 760 759
785 786 787 788 788 789 789 790 790 790 790 790 790 790 791 791 791 791 791 791 791 791 790 790 790 790 790 789 789 789 788 788 787 786 786 785 784 783 782 781 781 780 779 778 778 777 776 775 775 774 773 772 771 770 770 769 768 767 766 765 764 763 762 762 761 760 760 759 758
785 786 787 788 788 789 789 789 790 790 790 790 790 790 790 790 791 791 791 791 790 790 790 790 790 789 789 789 789 788 788 787 786 786 785 784 784 783 782 781 780 779 778 777 777 776 775 774 774 773 772 771 770 770 769 768 767 766 765 764 763 762 761 760 760 759 758 757 756
785 786 787 787 788 788 789 789 789 790 790 790 790 790 790 790 790 790 790 790 790 790 790 789 789 789 789 789 788 788 787 787 786 785 785 784 783 782 781 780 779 778 777 776 776 775 774 773 773 772 771 770 769 768 767 766 765 765 763 762 761 760 760 759 758 758 757 756 755
785 786 786 787 788 788 788 789 789 790 790 790 790 790 790 790 790 790 790 790 790 789 789 789 789 789 788 788 788 787 787 786 785 785 784 783 782 781 780 779 778 777 776 776 775 774 773 772 771 770 770 769 768 767 766 765 764 763 762 761 760 759 758 757 757 756 755 755 754
785 785 786 787 787 788 788 788 789 789 790 790 790 790 790 790 790 790 790 789 789 789 789 789 789 788 788 788 787 787 786 785 785 784 783 782 781 780 779 778 777 776 775 775 774 773 772 771 770 770 768 767 767 766 765 764 763 762 760 759 759 758 757 756 755 755 754 753 752
785 785 786 786 787 787 788 788 789 789 789 790 790 790 790 790 790 789 789 789 789 789 788 788 788 788 788 787 787 786 785 785 784 783 782 781 780 779 778 777 776 775 775 774 773 772 771 770 770 769 767 766 765 764 764 763 762 760 760 758 757 756 756 755 754 753 752 751 750
784 785 786 786 787 787 788 788 788 789 789 789 789 790 790 789 789 789 789 788 788 788 788 788 788 787 787 787 786 785 785 784 783 782 781 780 779 778 777 776 775 775 774 773 772 771 770 770 769 767 766 765 764 763 762 761 760 759 758 757 756 755 755 754 753 752 751 750 749
784 785 785 786 787 787 787 788 788 788 789 789 789 789 789 789 789 788 788 788 788 788 788 787 787 787 786 786 785 785 784 783 782 781 780 779 778 777 776 775 775 774 773 772 771 770 769 769 768 766 765 764 763 762 761 760 759 758 757 756 755 754 753 752 752 751 750 749 748
784 785 785 786 786 787 787 787 788 788 788 789 789 789 789 789 788 788 788 788 787 787 787 787 787 786 785 785 785 784 783 782 781 780 780 779 778 777 775 775 774 773 772 771 770 769 768 767 766 765 764 763 762 760 760 759 758 757 756 755 754 753 752 751 750 750 749 748 747
784 785 785 785 786 786 787 787 787 788 788 788 788 789 788 788 788 788 787 787 787 787 787 786 786 785 785 784 784 783 782 781 780 780 779 778 777 776 775 774 773 772 771 770 769 768 767 766 765 764 763 762 760 760 758 757 756 755 754 754 753 752 751 750 750 749 748 747 746
784 784 785 785 786 786 786 787 787 787 788 788 788 788 788 788 787 787 787 787 787 786 786 786 785 785 785 784 783 782 782 781 780 779 778 777 776 775 774 773 772 771 770 770 768 767 766 765 764 763 761 760 759 758 757 756 755 754 753 752 751 750 750 749 748 748 747 746 745
783 784 784 785 785 786 786 786 787 787 787 788 788 788 788 787 787 787 786 786 786 786 786 785 785 784 784 783 782 782 781 780 779 778 777 776 775 775 774 773 771 770 770 769 767 766 765 764 763 761 760 759 758 757 755 755 754 753 752 751 750 750 749 748 747 746 745 745 744
783 784 784 785 785 785 786 786 786 787 787 787 787 787 787 787 786 786 786 786 786 785 785 785 784 784 783 782 782 781 780 779 778 777 776 775 775 774 773 772 771 770 769 767 766 765 764 763 761 760 759 758 757 755 754 753 752 751 750 750 749 748 747 747 746 745 744 743 742
783 783 784 785 785 785 785 786 786 787 787 787 787 787 786 786 786 786 786 785 785 785 785 785 784 783 783 782 781 780 779 778 778 777 776 775 774 773 772 771 770 769 767 766 765 764 763 761 760 759 758 757 755 755 753 752 751 750 749 748 747 747 746 745 745 744 743 742 741
783 783 784 784 785 785 785 786 786 786 786 786 786 786 786 785 785 785 785 785 785 785 784 784 784 783 782 781 780 779 778 778 777 776 775 774 773 772 771 770 769 768 766 765 764 763 762 760 759 758 757 756 755 753 752 751 750 749 748 747 746 745 745 744 743 742 741 740 740
782 783 784 784 785 785 785 785 786 786 786 786 786 785 785 785 785 785 785 785 785 784 784 784 783 782 781 780 780 779 778 777 776 775 774 773 772 771 770 769 768 767 766 765 763 762 761 760 758 757 756 755 754 752 751 750 749 748 747 745 744 743 743 742 742 741 740 739 738
782 783 783 784 784 785 785 785 785 785 785 785 785 785 785 785 785 785 784 784 784 784 783 783 782 781 780 780 779 778 777 776 775 774 773 772 771 770 769 768 767 766 765 764 763 762 761 760 758 757 755 754 752 751 750 749 748 747 745 745 743 742 741 740 740 740 739 738 737
782 783 783 784 784 784 785 785 785 785 785 785 785 784 784 784 784 784 784 784 784 783 783 782 781 780 780 779 778 777 776 775 775 774 772 771 770 769 768 767 766 765 764 763 762 761 760 759 757 756 755 753 751 750 749 747 747 745 745 743 742 741 740 739 738 738 737 736 736
782 782 783 783 783 784 784 784 785 785 785 784 784 784 784 784 784 784 784 784 783 783 782 781 780 780 779 778 777 776 775 775 774 773 772 770 769 768 767 766 765 764 763 762 761 760 759 757 756 755 754 752 750 749 748 746 745 744 743 742 741 740 739 738 737 736 735 735 734
782 782 782 783 783 783 784 784 784 784 784 784 784 784 784 784 784 784 783 783 783 782 781 780 780 779 778 777 776 775 775 774 773 772 771 770 769 767 766 765 764 763 762 761 760 759 757 756 755 754 753 751 750 748 747 745 744 743 742 741 740 739 738 737 736 735 734 733 732
781 782 782 782 783 783 783 783 784 784 784 784 784 784 784 784 783 783 783 782 782 781 780 779 779 778 777 776 775 775 774 773 772 771 770 769 768 766 765 764 763 762 761 760 759 758 756 755 754 753 751 750 749 747 745 744 743 742 740 740 739 738 737 736 735 734 733 732 731
781 781 782 782 782 783 783 783 783 783 783 783 783 783 783 783 783 783 782 782 781 780 779 779 778 777 776 775 775 774 773 772 771 770 769 768 766 765 764 763 762 761 760 759 758 756 755 754 753 751 750 749 747 746 744 743 742 740 740 738 738 737 736 735 734 733 732 731 730
780 781 781 782 782 782 782 782 783 783 783 783 783 783 783 783 783 782 782 781 780 779 779 778 777 776 775 775 774 773 772 771 770 769 768 767 766 765 764 762 761 760 759 758 757 755 754 753 751 750 749 747 746 745 743 742 740 740 738 737 736 736 735 734 733 732 731 730 729
780 780 781 781 782 782 782 782 782 782 782 783 783 783 783 782 782 781 781 780 779 778 778 777 776 775 775 774 773 772 771 770 769 768 767 766 765 764 762 761 760 759 758 757 756 755 753 751 750 749 747 746 745 743 742 740 739 738 737 736 735 735 734 733 732 731 730 729 728
780 780 780 781 781 781 781 782 782 782 782 782 782 782 782 782 781 780 780 779 778 778 777 776 775 775 774 773 772 771 770 769 768 767 766 765 764 763 761 760 759 758 757 756 755 753 752 750 749 747 746 745 743 742 740 739 738 737 736 735 734 733 733 732 731 730 729 728 727
780 780 780 780 780 781 781 781 782 782 782 782 782 782 781 781 780 780 779 778 778 777 776 776 775 774 773 773 771 770 769 768 767 766 765 765 763 762 761 760 758 757 756 755 754 752 750 749 748 746 745 743 742 740 739 738 736 735 735 734 733 732 731 730 730 729 728 727 725
779 780 780 780 780 780 781 781 781 781 782 782 781 781 781 780 780 779 778 778 777 776 775 775 774 774 773 772 771 770 768 767 766 765 765 763 762 761 760 758 757 756 755 754 753 751 750 748 746 745 743 742 740 739 738 736 735 734 733 732 732 731 730 730 729 728 727 726 724
779 779 780 780 780 780 780 781 781 781 781 781 781 780 780 779 779 778 777 777 776 775 775 774 773 772 771 770 770 769 768 766 765 765 764 762 761 760 759 757 756 755 754 753 751 750 748 747 745 744 742 741 739 738 736 735 734 733 732 731 730 730 729 728 727 726 725 724 723
779 779 779 779 780 780 780 780 781 781 781 780 780 780 779 778 778 777 777 776 775 775 774 773 772 771 770 770 769 768 767 766 765 764 762 761 760 759 758 756 755 754 753 751 750 749 747 746 744 743 741 740 738 737 735 734 733 732 731 730 729 729 728 727 726 725 724 723 721
778 779 779 779 780 780 780 780 780 780 780 780 779 779 778 778 777 776 776 775 775 774 773 772 771 770 770 769 768 767 766 765 764 763 762 761 760 758 757 755 754 753 752 750 749 748 746 745 744 742 741 739 737 736 735 733 732 731 730 729 728 727 727 726 725 724 722 721 720
778 778 779 779 779 780 780 780 780 780 780 779 779 778 777 777 776 776 775 775 774 773 772 771 770 769 769 768 766 765 765 764 763 762 761 760 759 758 756 755 753 752 750 749 748 747 746 744 743 741 740 739 737 735 734 733 731 730 730 729 727 726 725 725 724 722 721 719 718
778 778 779 779 779 779 780 780 780 779 779 778 778 777 777 776 776 775 775 774 774 773 772 770 769 768 767 767 765 765 763 763 762 761 760 759 758 757 755 754 752 751 750 748 747 746 745 744 742 741 740 738 737 735 734 732 731 730 729 728 727 725 724 723 722 721 719 717 715
778 778 778 779 779 779 779 779 779 779 778 778 777 777 776 776 775 775 774 773 772 772 770 770 768 767 766 766 765 764 762 761 761 760 760 758 757 756 755 753 751 750 749 748 746 745 744 743 742 740 739 738 736 735 733 732 730 729 728 727 726 725 723 721 720 719 717 715 712